Back to catalog

ARIANE 3 R/B

AliveGTO
NORAD 18953·ROCKET BODY·🇫🇷 France

Launched Mar 11, 1988 from Guiana Space Centre

Loading…

TLE

AgingSource: Space-Track

Epoch: Sep 14, 2026, 13:05 UTC

1 18953U 88018C   26257.54575548  .00000162  00000-0  39936-3 0  9998
2 18953   6.3875 213.9284 7110428 242.9248  30.0837  2.42920178327457

Track ARIANE 3 R/B in real time with AllMySat

Download on the App Store